Weather History for Antwerp, Belgium

Change the Weather History Date:

Monday, January 20, 2014

  Actual Average Record
Temperature  
Mean Temperature 42 °F -  
Max Temperature 45 °F 43 °F 55 °F (2007)
Min Temperature 39 °F 34 °F 22 °F (2013)
Degree Days  
Heating Degree Days 23    
Moisture  
Dew Point 41 °F    
Average Humidity 88    
Maximum Humidity 93    
Minimum Humidity 75    
Precipitation  
Precipitation 0.35 in - - ()
Sea Level Pressure  
Sea Level Pressure 29.70 in    
Wind  
Wind Speed 5 mph ()    
Max Wind Speed 13 mph    
Max Gust Speed -    
Visibility 3.4 miles    
Events Rain    
Averages and records for this station are not official NWS values.
T = Trace of Precipitation, MM = Missing Value Source: Averaged Metar Reports

Daily Weather History Graph

Daily Weather History Graph

Search for Another Location

Airport:

Trip Planner

Search our weather history database for the weather conditions in past years. The results will help you decide how hot, cold, wet, or windy it might be!

Date:

Astronomy

Jan. 20, 2014 Rise Set
Actual Time 8:35 AM CET 5:11 PM CET
Civil Twilight 7:57 AM CET 5:49 PM CET
Nautical Twilight 7:16 AM CET 6:30 PM CET
Astronomical Twilight 6:37 AM CET 7:09 PM CET
Moon 10:06 PM CET (1/20) 9:55 AM CET (1/20)
Length of Visible Light 9h 51m
Length of Day
8h 36m
Waning Gibbous, 84% of the Moon is Illuminated
Jan 20
Waning Gibbous
Jan 24
Last Quarter
Jan 30
New
Feb 6
First Quarter
Feb 15
Full

Hourly Weather History & Observations

Time (CET) Temp. Windchill Dew Point Humidity Pressure Visibility Wind Dir Wind Speed Gust Speed Precip Events Conditions
12:00 AM 45 °F - 40 °F 75% 29.61 in 11 mi WNW 2.2 mph - -   Scattered Clouds
12:20 AM 46.4 °F 45.2 °F 41.0 °F 81% 29.59 in - West 3.5 mph - N/A   Clear
12:50 AM 44.6 °F - 39.2 °F 81% 29.59 in - NW 2.3 mph - N/A   Clear
1:00 AM 44 °F - 40 °F 80% 29.60 in 9 mi NW 2.2 mph - -   Overcast
1:20 AM 42.8 °F - 39.2 °F 87% 29.59 in 6.2 mi West 2.3 mph - N/A   Overcast
1:50 AM 44.6 °F - 41.0 °F 87% 29.59 in 6.2 mi NW 2.3 mph - N/A   Partly Cloudy
2:00 AM 45 °F - 40 °F 77% 29.61 in 7 mi NW 2.2 mph - -   Scattered Clouds
2:20 AM 44.6 °F 43.1 °F 41.0 °F 87% 29.59 in 6.2 mi North 3.5 mph - N/A   Light Drizzle
2:50 AM 44.6 °F 42.2 °F 41.0 °F 87% 29.59 in - NNW 4.6 mph - N/A   Clear
3:00 AM 45 °F - 40 °F 78% 29.62 in 8 mi NNW 4.5 mph - -   Clear
3:20 AM 44.6 °F 41.4 °F 41.0 °F 87% 29.62 in - NNW 5.8 mph - N/A   Clear
3:50 AM 44.6 °F 42.2 °F 41.0 °F 87% 29.62 in 6.2 mi North 4.6 mph - N/A   Partly Cloudy
4:00 AM 44 °F - 40 °F 82% 29.62 in 6 mi North 4.5 mph - -   Clear
4:20 AM 42.8 °F 40.1 °F 41.0 °F 93% 29.62 in - North 4.6 mph - N/A   Clear
4:50 AM 42.8 °F 41.1 °F 39.2 °F 87% 29.62 in - North 3.5 mph - N/A   Clear
5:00 AM 43 °F - 40 °F 85% 29.62 in 6 mi North 2.2 mph - -  
5:20 AM 42.8 °F 41.1 °F 41.0 °F 93% 29.62 in 5.6 mi NNW 3.5 mph - N/A   Unknown
5:50 AM 44.6 °F 41.4 °F 41.0 °F 87% 29.62 in 5.0 mi NNW 5.8 mph - N/A   Scattered Clouds
6:00 AM 44 °F - 40 °F 82% 29.63 in - NNW 4.5 mph - -   Partly Cloudy
6:20 AM 44.6 °F 42.2 °F 41.0 °F 87% 29.62 in 3.7 mi NNW 4.6 mph - N/A Rain Light Rain
6:50 AM 42.8 °F 40.1 °F 41.0 °F 93% 29.62 in 2.5 mi NNW 4.6 mph - N/A Rain Light Rain
7:00 AM 44 °F - 41 °F 84% 29.64 in 2 mi NNW 4.5 mph - - Rain Light Rain
7:20 AM 44.6 °F 42.2 °F 41.0 °F 87% 29.65 in 2.5 mi NW 4.6 mph - N/A Rain Light Rain
7:50 AM 44.6 °F 42.2 °F 42.8 °F 93% 29.65 in 1.8 mi WNW 4.6 mph - N/A Rain Light Rain
8:00 AM 44 °F - 42 °F 88% 29.66 in 2 mi NW 4.5 mph - - Rain Light Rain
8:20 AM 44.6 °F 43.1 °F 42.8 °F 93% 29.65 in 1.6 mi WNW 3.5 mph - N/A Rain Light Rain
8:50 AM 44.6 °F 42.2 °F 41.0 °F 87% 29.68 in 1.6 mi NNW 4.6 mph - N/A Rain Light Rain
9:00 AM 44 °F - 42 °F 88% 29.68 in 2 mi NNW 4.5 mph - - Rain Light Rain
9:20 AM 44.6 °F 42.2 °F 41.0 °F 87% 29.68 in 1.6 mi NNW 4.6 mph - N/A Rain Light Rain
9:50 AM 44.6 °F 41.4 °F 41.0 °F 87% 29.68 in 1.6 mi NNW 5.8 mph - N/A Rain Light Rain
10:00 AM 44 °F - 41 °F 87% 29.70 in 2 mi NNW 6.7 mph - - Rain Light Rain
10:20 AM 44.6 °F 42.2 °F 41.0 °F 87% 29.68 in 1.6 mi NNW 4.6 mph - N/A Rain Light Rain
10:50 AM 44.6 °F 43.1 °F 42.8 °F 93% 29.71 in 1.6 mi NNW 3.5 mph - N/A Rain Light Rain
11:00 AM 45 °F - 42 °F 86% 29.71 in 2 mi NNW 4.5 mph - - Rain Light Rain
11:20 AM 44.6 °F 41.4 °F 42.8 °F 93% 29.71 in 1.6 mi NNW 5.8 mph - N/A Rain Light Rain
11:50 AM 44.6 °F 41.4 °F 42.8 °F 93% 29.71 in - North 5.8 mph - N/A Rain Light Rain
12:00 PM 45 °F - 43 °F 88% 29.72 in 2 mi North 6.7 mph - - Rain Light Rain
12:20 PM 44.6 °F 40.2 °F 42.8 °F 93% 29.71 in - North 8.1 mph - N/A   Mostly Cloudy
12:50 PM 44.6 °F 40.7 °F 42.8 °F 93% 29.71 in 1.7 mi NNW 6.9 mph - N/A   Mostly Cloudy
1:00 PM 45 °F - 43 °F 88% 29.71 in 2 mi NNW 6.7 mph - -   Mist
1:20 PM 44.6 °F 40.7 °F 42.8 °F 93% 29.68 in 1.7 mi NNW 6.9 mph - N/A   Mostly Cloudy
1:50 PM 44.6 °F 40.7 °F 42.8 °F 93% 29.68 in 2.5 mi NNW 6.9 mph - N/A   Light Drizzle
2:00 PM 45 °F - 43 °F 90% 29.71 in 2 mi NNW 6.7 mph - - Rain Light Drizzle
2:20 PM 44.6 °F 40.2 °F 42.8 °F 93% 29.68 in 2.5 mi North 8.1 mph - N/A   Light Drizzle
2:50 PM 44.6 °F 40.7 °F 42.8 °F 93% 29.71 in - North 6.9 mph - N/A Rain Light Drizzle
3:00 PM 45 °F - 42 °F 87% 29.72 in 2 mi North 6.7 mph - - Rain Light Rain
3:20 PM 44.6 °F 42.2 °F 41.0 °F 87% 29.71 in 1.7 mi North 4.6 mph - N/A Rain Rain
3:50 PM 44.6 °F 40.7 °F 41.0 °F 87% 29.71 in 1.5 mi North 6.9 mph - N/A Rain Rain
4:00 PM 44 °F - 41 °F 86% 29.74 in 1 mi North 6.7 mph - - Rain Light Rain
4:20 PM 44.6 °F 43.1 °F 41.0 °F 87% 29.74 in 1.5 mi NNW 3.5 mph - N/A Rain Light Drizzle
4:50 PM 44.6 °F 40.7 °F 41.0 °F 87% 29.74 in 1.5 mi NW 6.9 mph - N/A Rain Rain
5:00 PM 44 °F - 42 °F 89% 29.75 in 1 mi NW 6.7 mph - - Rain Light Rain
5:20 PM 44.6 °F 40.7 °F 42.8 °F 93% 29.74 in 1.5 mi NNW 6.9 mph - N/A Rain Rain
5:50 PM 44.6 °F 39.7 °F 41.0 °F 87% 29.77 in 1.5 mi NW 9.2 mph - N/A Rain Rain
6:00 PM 44 °F - 42 °F 89% 29.77 in 1 mi NW 8.9 mph - - Rain Light Rain
6:20 PM 44.6 °F 38.8 °F 41.0 °F 87% 29.77 in - NNW 11.5 mph - N/A Rain Light Drizzle
6:50 PM 42.8 °F 36.2 °F 41.0 °F 93% 29.77 in 3.7 mi NW 12.7 mph - N/A Rain Light Rain
7:00 PM 43 °F - 40 °F 86% 29.79 in 4 mi NW 11.2 mph - - Rain Light Rain
7:20 PM 42.8 °F 37.0 °F 39.2 °F 87% 29.77 in 3.7 mi NNW 10.4 mph - N/A Rain Light Rain
7:50 PM 42.8 °F 38.0 °F 39.2 °F 87% 29.80 in 3.7 mi NNW 8.1 mph - N/A Rain Light Rain
8:00 PM 42 °F - 40 °F 89% 29.80 in 4 mi NNW 8.9 mph - - Rain Light Rain
8:20 PM 42.8 °F 37.0 °F 39.2 °F 87% 29.80 in 3.7 mi NNW 10.4 mph - N/A Rain Light Rain
8:50 PM 41.0 °F 35.8 °F 39.2 °F 93% 29.80 in 3.7 mi NNW 8.1 mph - N/A Rain Light Rain
9:00 PM 42 °F - 40 °F 88% 29.82 in 4 mi NNW 6.7 mph - - Rain Light Rain
9:20 PM 41.0 °F 36.4 °F 39.2 °F 93% 29.80 in 3.7 mi NNW 6.9 mph - N/A Rain Light Rain
9:50 PM 41.0 °F 36.4 °F 39.2 °F 93% 29.83 in 3.7 mi North 6.9 mph - N/A Rain Light Rain
10:00 PM 41 °F - 38 °F 87% 29.83 in 4 mi North 6.7 mph - - Rain Light Rain
10:20 PM 41.0 °F 37.1 °F 37.4 °F 87% 29.83 in 3.7 mi North 5.8 mph - N/A Rain Light Rain
10:50 PM 41.0 °F 36.4 °F 37.4 °F 87% 29.83 in 3.7 mi NNW 6.9 mph - N/A Rain Light Rain
11:00 PM 40 °F - 37 °F 86% 29.84 in 4 mi NNW 6.7 mph - - Rain Light Rain
11:20 PM 39.2 °F 35.0 °F 37.4 °F 93% 29.83 in 5.6 mi North 5.8 mph - N/A   Drizzle
11:50 PM 39.2 °F 35.9 °F 35.6 °F 87% 29.83 in 6.2 mi North 4.6 mph - N/A Rain Light Rain